[[{"header":{"parameterUnit":"m.s-1","parameterCategory":1,"la1":30.2991,"la2":30.254,"lo1":-89.0895,"lo2":-89.0444,"dy":0.0017,"dx":0.0017,"nx":28,"ny":28,"refTime":"2023-10-21T21:00:00:Z","depth":0,"parameterNumber":2,"parameterNumberName":"U-component_of_WINDS"},"data":[0,0,0,0,0,0,0,0,0,0,0,0,0,0,0,0,0,0,0,0,0,0,0,0,0,0,0,0,0,0,0,0,0,0,0,0,0,0,0,0,0,0,0,0,0,0,0,0,0,0,0,0,0,0,0,0,0,0,-2.7209,-2.7209,0,-2.7172,-2.7171,-2.7171,-2.7153,-2.7153,-2.7153,-2.7153,-2.7112,-2.7111,-2.711,0,0,0,0,0,0,0,0,0,0,0,0,0,-2.7265,-2.7264,-2.7209,-2.7209,-2.7208,-2.7172,-2.7171,-2.7171,-2.7153,-2.7153,-2.7153,-2.7153,-2.7112,-2.7111,-2.711,0,0,0,0,0,0,0,0,0,0,0,0,0,-2.7235,-2.7264,-2.7209,-2.7195,-2.7193,-2.7172,-2.7171,-2.717,-2.7153,-2.7153,-2.7153,-2.7153,-2.7113,-2.7111,-2.7109,-2.7098,0,0,-2.7104,-2.7104,0,0,0,0,0,0,0,0,-2.7237,-2.7233,-2.7198,-2.7196,-2.7194,-2.7167,-2.7176,-2.7146,-2.7153,-2.7168,-2.7153,-2.7153,-2.713,-2.7127,-2.712,-2.7096,-2.7094,-2.7104,-2.7103,-2.7102,-2.7102,0,0,0,0,0,0,0,-2.7239,-2.7235,-2.7194,-2.7197,-2.7195,-2.719,-2.7186,-2.717,-2.7149,-2.7167,-2.7165,-2.7161,-2.7129,-2.7121,-2.7119,-2.7094,-2.7104,-2.7103,-2.7102,-2.7101,-2.7062,-2.7062,0,0,0,0,0,0,-2.7244,-2.7237,-2.7195,-2.7193,-2.7216,-2.7189,-2.7185,-2.7176,-2.7149,-2.7145,-2.7161,-2.7161,-2.7124,-2.7121,-2.7117,-2.7103,-2.7102,-2.7101,-2.71,-2.7062,-2.7062,-2.7062,0,0,0,0,0,0,-2.7245,-2.724,-2.7197,-2.7214,-2.7209,-2.7188,-2.7178,-2.7175,-2.7167,-2.7145,-2.7141,-2.7157,-2.7124,-2.7119,-2.7104,-2.7102,-2.71,-2.7099,-2.7062,-2.7062,-2.7062,-2.7075,0,0,0,0,0,0,-2.7247,-2.7241,-2.7236,-2.7215,-2.7208,-2.7184,-2.7178,-2.7174,-2.7165,-2.7163,-2.714,-2.7137,-2.7124,-2.7106,-2.7102,-2.7099,-2.7097,-2.7062,-2.7062,-2.7062,-2.7075,-2.7076,-2.7077,0,0,0,0,0,-2.7249,-2.724,-2.7236,-2.7231,-2.7202,-2.7184,-2.718,-2.7166,-2.7164,-2.716,-2.7146,-2.7137,-2.7103,-2.7105,-2.71,-2.7097,-2.7062,-2.7062,-2.7062,-2.7075,-2.7076,-2.7077,0,0,0,0,0,0,-2.726,-2.7237,-2.7232,-2.7217,-2.7203,-2.7181,-2.7174,-2.7167,-2.7153,-2.7152,-2.7135,-2.713,-2.7116,-2.7105,-2.7107,-2.7086,-2.7082,-2.7081,-2.7093,-2.7094,-2.7095,-2.7097,-2.7096,0,0,0,0,0,-2.7262,-2.725,-2.723,-2.7218,-2.7212,-2.7195,-2.7186,-2.7177,-2.7162,-2.7155,-2.714,-2.7125,-2.7111,-2.7102,-2.7088,-2.7074,-2.7069,-2.7069,-2.707,-2.7071,-2.707,-2.7064,-2.7064,-2.7062,-2.7062,-2.7062,0,0,-2.7263,-2.7249,-2.7242,-2.722,-2.7208,-2.7197,-2.7189,-2.7177,-2.7168,-2.7153,-2.7138,-2.7127,-2.7109,-2.7095,-2.7087,-2.7085,-2.707,-2.7071,-2.7072,-2.707,-2.7064,-2.7064,-2.7064,-2.7061,-2.7061,-2.7061,0,0,-2.7259,-2.7248,-2.7237,-2.7227,-2.721,-2.7199,-2.7197,-2.7177,-2.7169,-2.7154,-2.7144,-2.7133,-2.7108,-2.7097,-2.7088,-2.7084,-2.7075,-2.7079,-2.7083,-2.7077,-2.7077,-2.7077,-2.7077,-2.7077,-2.7079,-2.7079,-2.7079,0,-2.7263,-2.7245,-2.7233,-2.7221,-2.7213,-2.7201,-2.7191,-2.7181,-2.7159,-2.7153,-2.7151,-2.7122,-2.7109,-2.7093,-2.7093,-2.7085,-2.7083,-2.7081,-2.7078,-2.7078,-2.7078,-2.7077,-2.7077,-2.7079,-2.7079,-2.7079,-2.7079,0,-2.7251,-2.7239,-2.7233,-2.7215,-2.7206,-2.7195,-2.7181,-2.7173,-2.7165,-2.7155,-2.7141,-2.7125,-2.7109,-2.7104,-2.7096,-2.7088,-2.7087,-2.7082,-2.7077,-2.7079,-2.7078,-2.7078,-2.708,-2.708,-2.708,-2.708,0,0,-2.7251,-2.7229,-2.7227,-2.722,-2.7202,-2.7192,-2.7182,-2.7167,-2.7161,-2.7147,-2.7138,-2.712,-2.7116,-2.7106,-2.7096,-2.7091,-2.7091,-2.7087,-2.7086,-2.7089,-2.7082,-2.7086,-2.7085,-2.7086,-2.7086,-2.7086,-2.7084,0,-2.7246,-2.7227,-2.7217,-2.7203,-2.7192,-2.7183,-2.7174,-2.7162,-2.7153,-2.7142,-2.7132,-2.712,-2.7115,-2.7109,-2.7104,-2.7092,-2.7089,-2.7092,-2.7077,-2.7077,-2.7082,-2.7085,-2.7088,-2.7087,-2.7083,-2.7083,-2.7083,0,-2.7236,-2.7225,-2.721,-2.7196,-2.7191,-2.7183,-2.717,-2.716,-2.7147,-2.7141,-2.7132,-2.7123,-2.7112,-2.711,-2.7095,-2.7098,-2.7091,-2.7085,-2.7085,-2.7082,-2.7079,-2.7082,-2.7086,-2.7086,-2.7082,-2.7082,-2.7082,0,-2.7238,-2.722,-2.7209,-2.7203,-2.7185,-2.7181,-2.7173,-2.716,-2.7153,-2.7141,-2.7137,-2.7124,-2.7117,-2.7107,-2.7096,-2.7095,-2.7083,-2.7079,-2.7078,-2.7078,-2.7074,-2.7075,-2.7077,-2.7071,-2.7071,-2.7071,-2.7071,0,-2.7233,-2.7224,-2.721,-2.7204,-2.7194,-2.7183,-2.7174,-2.7166,-2.7155,-2.7147,-2.7138,-2.713,-2.7116,-2.7106,-2.7097,-2.7088,-2.7084,-2.7079,-2.7077,-2.708,-2.708,-2.7075,-2.7075,-2.7071,-2.7071,-2.7071,-2.7071,0,-2.7233,-2.7224,-2.7212,-2.7197,-2.7194,-2.7188,-2.7175,-2.7169,-2.716,-2.715,-2.7147,-2.7134,-2.7123,-2.7111,-2.7095,-2.709,-2.708,-2.7077,-2.7085,-2.7084,-2.7083,-2.7083,-2.7081,-2.7081,-2.7075,-2.7076,-2.7076,0,-2.723,-2.7224,-2.721,-2.7205,-2.7198,-2.7189,-2.7182,-2.7172,-2.7165,-2.7152,-2.7147,-2.7136,-2.7126,-2.7109,-2.7098,-2.7087,-2.7083,-2.7083,-2.7081,-2.7085,-2.7083,-2.7084,-2.7084,-2.7083,-2.7084,-2.7084,-2.7084,0,-2.7226,-2.7222,-2.7213,-2.7204,-2.7196,-2.7188,-2.7179,-2.7175,-2.7163,-2.7156,-2.7145,-2.7138,-2.7124,-2.7113,-2.7101,-2.7093,-2.7087,-2.7085,-2.7084,-2.7087,-2.7092,-2.709,-2.7087,-2.7085,-2.7084,-2.7084,-2.7084,-2.7084,-2.7224,-2.7219,-2.7209,-2.72,-2.7193,-2.7186,-2.718,-2.7172,-2.7163,-2.7152,-2.7146,-2.7136,-2.7126,-2.7109,-2.7102,-2.7094,-2.7092,-2.709,-2.709,-2.709,-2.7091,-2.7094,-2.7092,-2.7092,-2.7092,-2.7092,-2.7092,0,-2.722,-2.7214,-2.7206,-2.7195,-2.7189,-2.7185,-2.7176,-2.717,-2.7162,-2.7153,-2.7145,-2.7134,-2.7124,-2.7114,-2.7103,-2.7099,-2.7096,-2.7097,-2.7097,-2.7096,-2.7093,-2.7095,-2.71,-2.71,-2.71,-2.71,-2.71,-2.71,-2.7217,-2.7208,-2.7204,-2.7193,-2.7186,-2.7178,-2.7173,-2.7166,-2.7159,-2.7148,-2.7141,-2.7135,-2.7125,-2.7115,-2.7106,-2.7104,-2.71,-2.7102,-2.7098,-2.7096,-2.7095,-2.7095,-2.7097,-2.7101,-2.7101,-2.7101,-2.7101,-2.7101]},{"header":{"parameterUnit":"m.s-1","parameterCategory":1,"la1":30.2991,"la2":30.254,"lo1":-89.0895,"lo2":-89.0444,"dy":0.0017,"dx":0.0017,"nx":28,"ny":28,"refTime":"2023-10-21T21:00:00:Z","depth":0,"parameterNumber":3,"parameterNumberName":"V-component_of_WINDS"},"data":[0,0,0,0,0,0,0,0,0,0,0,0,0,0,0,0,0,0,0,0,0,0,0,0,0,0,0,0,0,0,0,0,0,0,0,0,0,0,0,0,0,0,0,0,0,0,0,0,0,0,0,0,0,0,0,0,0,0,1.5455,1.5454,0,1.5388,1.5388,1.5387,1.5435,1.5438,1.544,1.5442,1.5364,1.536,1.5356,0,0,0,0,0,0,0,0,0,0,0,0,0,1.5616,1.5612,1.5455,1.5454,1.5453,1.5388,1.5387,1.5387,1.5435,1.5438,1.544,1.5443,1.5366,1.5361,1.5356,0,0,0,0,0,0,0,0,0,0,0,0,0,1.5547,1.5611,1.5455,1.547,1.5471,1.5389,1.5387,1.5386,1.5434,1.5438,1.5441,1.5444,1.5367,1.5361,1.5355,1.5252,0,0,1.5337,1.5334,0,0,0,0,0,0,0,0,1.5551,1.5541,1.5469,1.5469,1.5469,1.5424,1.5416,1.5341,1.5434,1.5448,1.5442,1.5446,1.5381,1.5374,1.5354,1.5249,1.5245,1.5336,1.5332,1.533,1.5328,0,0,0,0,0,0,0,1.5555,1.5544,1.5428,1.5467,1.5468,1.5477,1.5471,1.5402,1.5396,1.5447,1.545,1.5442,1.5382,1.536,1.5352,1.5244,1.5336,1.5331,1.5327,1.5325,1.505,1.5046,0,0,0,0,0,0,1.556,1.5548,1.5431,1.5426,1.5519,1.5472,1.5465,1.5435,1.5398,1.5395,1.544,1.5445,1.5369,1.5359,1.535,1.5226,1.533,1.5324,1.532,1.5053,1.5049,1.5045,0,0,0,0,0,0,1.5563,1.5549,1.5433,1.5488,1.5474,1.5465,1.5432,1.5432,1.541,1.5392,1.5391,1.5419,1.5371,1.5358,1.5277,1.5224,1.5321,1.5316,1.5058,1.5052,1.5047,1.4978,0,0,0,0,0,0,1.5568,1.555,1.5513,1.5487,1.5471,1.5363,1.5428,1.5428,1.54,1.5407,1.5372,1.5369,1.5372,1.5285,1.527,1.5217,1.5311,1.5062,1.5055,1.5049,1.4985,1.4971,1.4959,0,0,0,0,0,1.5573,1.5494,1.5511,1.5496,1.5425,1.536,1.5351,1.5359,1.5396,1.5357,1.5346,1.537,1.5233,1.5277,1.526,1.5204,1.5065,1.5057,1.5049,1.499,1.4973,1.4959,0,0,0,0,0,0,1.5511,1.5491,1.5509,1.542,1.5392,1.5369,1.532,1.534,1.5298,1.5306,1.5314,1.5306,1.522,1.5204,1.5254,1.5102,1.5155,1.5143,1.5116,1.5099,1.5086,1.5091,1.5306,0,0,0,0,0,1.5487,1.544,1.5424,1.5346,1.5332,1.5328,1.53,1.5309,1.5279,1.5266,1.5249,1.5216,1.5165,1.5132,1.5084,1.4983,1.4975,1.4936,1.4923,1.4913,1.4902,1.4846,1.4828,1.5018,1.5018,1.5018,0,0,1.5436,1.542,1.5389,1.5333,1.5313,1.526,1.5318,1.526,1.522,1.5256,1.5179,1.5165,1.5129,1.5037,1.4995,1.5021,1.4848,1.4902,1.4894,1.4889,1.4836,1.4818,1.4802,1.5013,1.5014,1.5014,0,0,1.5318,1.5301,1.5235,1.5214,1.5183,1.5181,1.5165,1.5139,1.5132,1.5055,1.5081,1.5033,1.4945,1.4919,1.4893,1.4765,1.4786,1.4749,1.468,1.4626,1.4611,1.4598,1.455,1.4533,1.4739,1.4738,1.4738,0,1.5258,1.5183,1.5197,1.5138,1.5112,1.5146,1.5077,1.5055,1.5008,1.4988,1.5018,1.491,1.4888,1.479,1.4758,1.4737,1.4717,1.4752,1.4613,1.4599,1.4587,1.4542,1.4524,1.4734,1.4735,1.4735,1.4735,0,1.5111,1.5058,1.5008,1.4966,1.4934,1.487,1.4871,1.4837,1.4848,1.4843,1.4762,1.4738,1.4686,1.4663,1.4672,1.4565,1.4582,1.4612,1.4665,1.4564,1.4522,1.4505,1.4728,1.4729,1.4731,1.4732,0,0,1.4949,1.4917,1.4898,1.4879,1.4848,1.4806,1.4743,1.4695,1.4664,1.4631,1.4576,1.4502,1.453,1.4502,1.4508,1.446,1.4359,1.4496,1.4495,1.447,1.4237,1.4214,1.4194,1.4373,1.437,1.4367,1.424,0,1.4828,1.4721,1.4732,1.4629,1.458,1.4612,1.4556,1.4529,1.4522,1.4477,1.4468,1.4415,1.4456,1.4439,1.4394,1.4381,1.4312,1.439,1.4319,1.4317,1.4326,1.4172,1.4147,1.4029,1.4224,1.4221,1.4219,0,1.4672,1.4637,1.453,1.4507,1.4486,1.4436,1.4393,1.435,1.432,1.4318,1.4286,1.4301,1.4234,1.429,1.4197,1.425,1.4221,1.4211,1.4206,1.4198,1.4261,1.4159,1.3991,1.3972,1.4193,1.4195,1.4197,0,1.4564,1.4489,1.4416,1.4398,1.4369,1.4333,1.4319,1.4292,1.4262,1.4223,1.4204,1.4156,1.413,1.4091,1.4092,1.4133,1.3997,1.4053,1.3991,1.3991,1.3959,1.3961,1.3783,1.3943,1.3944,1.3944,1.3944,0,1.4426,1.4359,1.4367,1.4321,1.4246,1.4258,1.4182,1.4172,1.4147,1.4098,1.4122,1.4074,1.4079,1.403,1.403,1.3952,1.394,1.3934,1.3935,1.3931,1.3932,1.3911,1.3919,1.3939,1.394,1.3941,1.3942,0,1.4292,1.4294,1.4216,1.4196,1.4189,1.4135,1.4116,1.4071,1.4067,1.4004,1.399,1.3981,1.3925,1.3923,1.3857,1.3857,1.3762,1.3772,1.3773,1.3774,1.3712,1.3717,1.3514,1.3487,1.3666,1.3664,1.3663,0,1.4203,1.4153,1.4128,1.4099,1.4083,1.4035,1.4006,1.4015,1.3983,1.3944,1.3903,1.3851,1.3809,1.3717,1.3703,1.3653,1.3661,1.3593,1.3653,1.3651,1.3658,1.366,1.3655,1.358,1.3578,1.3577,1.3576,0,1.4046,1.405,1.4009,1.3968,1.3933,1.39,1.3869,1.3843,1.3848,1.381,1.3755,1.3723,1.3657,1.3603,1.3555,1.3536,1.3555,1.3557,1.354,1.3535,1.3537,1.3534,1.3739,1.3561,1.3563,1.3564,1.3564,1.3565,1.3931,1.3887,1.3864,1.3816,1.3795,1.3766,1.3724,1.3715,1.367,1.362,1.3627,1.3565,1.3534,1.3472,1.345,1.3399,1.3422,1.3397,1.3391,1.3384,1.3377,1.3547,1.339,1.3391,1.3391,1.3391,1.3392,0,1.3773,1.376,1.3717,1.3675,1.3637,1.3663,1.363,1.3596,1.3542,1.3514,1.3473,1.3408,1.3356,1.3339,1.3288,1.325,1.3258,1.3236,1.3238,1.3233,1.336,1.338,1.3231,1.3231,1.3231,1.3231,1.3231,1.3231,1.3687,1.3615,1.3616,1.3533,1.3519,1.3461,1.344,1.3413,1.339,1.3318,1.3276,1.3267,1.3242,1.3189,1.3141,1.3137,1.3116,1.3091,1.309,1.3208,1.3225,1.324,1.3258,1.3087,1.3087,1.2968,1.2967,1.2966]}]]